This is the latest recevied weather packets stored in our database for station/object N2UFM. If no packets are shown the sender has not sent any weather packets the latest 10 day(s).
| Time | Temp. | Humidity | Pressure | Rain* | Wind** | Luminosity | Snow |
|---|---|---|---|---|---|---|---|
| 1777477734 | 13.89° C | 71% | 1016.4 hPa | 0 mm | - | - | - |
| 1777477434 | 13.89° C | 72% | 1016.4 hPa | 0 mm | - | - | - |
| 1777477133 | 13.89° C | 73% | 1016.6 hPa | 0 mm | - | - | - |
| 1777476833 | 14.44° C | 70% | 1016.6 hPa | 0 mm | - | - | - |
| 1777476533 | 14.44° C | 69% | 1016.8 hPa | 0 mm | - | - | - |
| 1777476233 | 14.44° C | 67% | 1016.7 hPa | 0 mm | - | - | - |
| 1777475933 | 14.44° C | 68% | 1016.5 hPa | 0 mm | - | - | - |
| 1777475633 | 14.44° C | 68% | 1016.4 hPa | 0 mm | - | - | - |
| 1777475332 | 14.44° C | 69% | 1016.6 hPa | 0 mm | - | - | - |
| 1777475032 | 13.89° C | 69% | 1016.5 hPa | 0 mm | - | - | - |
| 1777474732 | 13.89° C | 70% | 1016.7 hPa | 0 mm | - | - | - |
| 1777474432 | 13.89° C | 71% | 1016.6 hPa | 0 mm | - | - | - |
| 1777474132 | 13.89° C | 71% | 1016.7 hPa | 0 mm | - | - | - |
| 1777473832 | 13.89° C | 70% | 1016.8 hPa | 0 mm | - | - | - |
| 1777473531 | 13.89° C | 71% | 1016.8 hPa | 0 mm | - | - | - |
| 1777473231 | 13.89° C | 70% | 1016.8 hPa | 0 mm | - | - | - |
| 1777472931 | 13.89° C | 70% | 1016.8 hPa | 0 mm | - | - | - |
| 1777472631 | 13.89° C | 70% | 1016.8 hPa | 0 mm | - | - | - |
| 1777472331 | 13.89° C | 71% | 1016.8 hPa | 0 mm | - | - | - |
| 1777472030 | 13.89° C | 71% | 1016.7 hPa | 0 mm | - | - | - |
| 1777471730 | 14.44° C | 69% | 1016.7 hPa | 0 mm | - | - | - |
| 1777471430 | 14.44° C | 68% | 1016.7 hPa | 0 mm | - | - | - |
| 1777471130 | 14.44° C | 68% | 1016.9 hPa | 0 mm | - | - | - |
| 1777470830 | 14.44° C | 70% | 1017 hPa | 0 mm | - | - | - |
| 1777470529 | 14.44° C | 71% | 1016.8 hPa | 0 mm | - | - | - |
* Rain latest hour (hover to see other rain measurements)
** Current wind speed in m/s (hover to see current wind gust speed)